Other Public Products
Issued by NWS Grand Forks, ND

Home | Current Version | Previous Version | Text Only | Print | Product List | Glossary Off
Versions: 1 2 3 4 5 6 7 8 9 10 11 12 13 14 15 16 17 18 19 20 21 22 23 24 25 26 27 28 29 30 31 32 33 34 35 36 37 38 39 40 41 42 43 44 45 46 47 48 49 50

000
FPUS83 KFGF 262110
OPUFGF
PRAIRIE TO PINES WEATHER ROUNDUP
NATIONAL WEATHER SERVICE EASTERN NORTH DAKOTA/GRAND FORKS ND
400 PM CDT FRI AUG 26 2016

 **SATELLITE DATA USED TO AUGMENT SKY COVER AT AUTOMATED STATIONS**
 *****  WEATHER ACROSS EASTERN NORTH DAKOTA  *****

CITY           SKY/WX    TMP DP  RH WIND       PRES   REMARKS
GRAND FORKS    CLOUDY    75  52  44 SW13      30.02F
GRAND FORKS AF CLOUDY    74  52  45 SW10      30.02F
GRAND CITY NWS   N/A     73 N/A N/A W9          N/A
BUXTON           N/A     77  50  39 SW12        N/A
DEVILS LAKE    CLOUDY    73  50  44 SW14      30.02F
FARGO          CLOUDY    74  49  41 SW14      30.07F
WAHPETON ARPT  CLOUDY    72  45  37 S8        30.09F
$$

 *****  WEATHER ACROSS CENTRAL AND WESTERN NORTH DAKOTA  *****

CITY           SKY/WX    TMP DP  RH WIND       PRES   REMARKS
JAMESTOWN      CLOUDY    66  52  60 SW15      30.08S
BISMARCK       SUNNY     72  48  42 S21G30    30.05F
MINOT          MOSUNNY   76  45  33 S10       29.95F
MINOT AFB      MOSUNNY   75  41  29 S14G20    29.93F
GARRISON         N/A     67  51  56 S15       30.00F
WILLISTON      CLOUDY    78  39  24 SW12G23   29.94F
DICKINSON      CLOUDY    70  44  39 S14       30.00F
HETTINGER      LGT RAIN  59  53  80 NE3       30.05F
$$

 *****  OTHER OBSERVATIONS NORTHEAST NORTH DAKOTA  *****

CITY           SKY/WX    TMP DP  RH WIND       PRES   REMARKS
WALHALLA       NOT AVBL
LANGDON        FAIR      75  50  41 SW16G23   30.01F
CAVALIER       FAIR      75  52  43 SW12      29.98F
GRAFTON        FAIR      75  54  46 SW9       30.02F
CANDO          NOT AVBL
FORT TOTTEN      N/A     73  50  43 S7        29.95
ROLLA            N/A     73  46  38 SW16G23   29.99F
RUGBY          NOT AVBL
 ***** THE ABOVE OBSERVATIONS ARE NON NWS ARE NOT QUALITY
        CONTROLLED AND MAY MIS-REPORT RAIN FOR SNOW...
$$

 *****  OTHER OBSERVATIONS SOUTHEAST NORTH DAKOTA *****

CITY           SKY/WX    TMP DP  RH WIND       PRES   REMARKS
COOPERSTOWN    NOT AVBL
VALLEY CITY    FAIR      68  55  64 SW10      30.10S
OAKES            N/A    N/A N/A N/A MISG        N/A
GWINNER        FAIR      63  59  88 W9        30.11S
SHEYENNE NWR     N/A     67  53  59 W8        29.95S
BUFFALO          N/A     70  45  39 SW7         N/A
WYNDMERE       NOT AVBL
 ***** THE ABOVE OBSERVATIONS ARE NON NWS ARE NOT QUALITY
       CONTROLLED AND MAY MIS-REPORT RAIN FOR SNOW...
$$

  *****  WEATHER ACROSS NORTHERN MINNESOTA  *****

CITY           SKY/WX    TMP DP  RH WIND       PRES   REMARKS
FLAG ISLAND    SUNNY     73  55  53 S5        30.02F
WARROAD        SUNNY     75  54  46 W5        30.03F
ROSEAU         MOSUNNY   75  45  33 SW8       30.03F
HALLOCK        CLOUDY    75  48  38 SW12      29.99F
THF RVR FALLS  MOSUNNY   75  46  35 S12       30.05F
HALSTAD          N/A     74  52  46 SW16        N/A
FOSSTON        SUNNY     73  46  38 SW8       30.08F
BAUDETTE       MOSUNNY   75  47  36 SW9       30.04F
WASKISH        SUNNY     73  50  43 SW8       30.07F
CROOKSTON      MOSUNNY   75  48  38 SW14      30.04F
$$
  *****  WEATHER ACROSS CENTRAL AND WEST MINNESOTA  *****

CITY           SKY/WX    TMP DP  RH WIND       PRES   REMARKS
BEMIDJI        MOSUNNY   74  46  36 W8        30.09S
PARK RAPIDS    PTSUNNY   72  48  42 W10       30.10F
WADENA         NOT AVBL
DETROIT LAKES  SUNNY     72  50  46 SW9       30.11F
MOORHEAD       PTSUNNY   73  48  40 SW9       30.08F
FERGUS FALLS   CLOUDY    73  52  46 SW9       30.11F
ELBOW LAKE     FAIR      72  53  52 SW9       30.13S
MORRIS MN      MOSUNNY   73  52  46 CALM      30.12F
STAPLES        CLOUDY    70  48  46 SW3       30.12S
WHEATON        CLOUDY    73  55  53 S5        30.13S
$$
  *****  WEATHER ELSEWHERE ACROSS MINNESOTA  *****

CITY           SKY/WX    TMP DP  RH WIND       PRES   REMARKS
DULUTH         CLOUDY    71  53  52 SE9       30.12F
INTRNTL FALLS  MOSUNNY   71  50  47 W5        30.06F
ELY            MOSUNNY   72  45  37 SW7       30.10F
CLOQUET        CLOUDY    72  48  43 SW8       30.12F
BRAINERD       CLOUDY    73  49  42 SW8       30.12F
HIBBING        CLOUDY    71  47  42 SW7       30.10F
ALEXANDRIA     CLOUDY    71  50  47 S8        30.15F
SAINT CLOUD    CLOUDY    71  53  52 S7        30.14S
MINNEAPOLIS    CLOUDY    72  54  53 SE6       30.15S
$$

  *****  WEATHER ACROSS SOUTH DAKOTA  *****

CITY           SKY/WX    TMP DP  RH WIND       PRES   REMARKS
SIOUX FALLS    CLOUDY    75  54  47 E5        30.12F
BROOKINGS      PTSUNNY   70  53  54 S6        30.13F
WATERTOWN      CLOUDY    70  52  52 S5        30.13F
HURON          CLOUDY    68  53  58 N7        30.12F
SISSETON         N/A     72  53  51 S6        30.10S
ABERDEEN       LGT RAIN  62  56  80 W6        30.12S
MITCHELL       CLOUDY    74  56  53 CALM      30.11F
PIERRE         CLOUDY    61  54  77 E7        30.08F
MOBRIDGE       CLOUDY    64  51  62 S14       30.07F
RAPID CITY     MOSUNNY   66  55  67 S10G20    30.05F
$$

  *****  SOME WEATHER IN NEARBY STATES *****

CITY           SKY/WX    TMP DP  RH WIND       PRES   REMARKS
GLASGOW MT     PTSUNNY   70  46  42 NW21G28   29.97F
GREAT FALLS MT SUNNY     68  42  38 CALM      30.03F
CHEYENNE WY    CLOUDY    61  50  67 E10       30.12F
SCOTTSBLUFF NE SUNNY     70  53  54 E14       30.05F
OMAHA NE       CLOUDY    71  64  78 E9        30.07F
DES MOINES IA  LGT RAIN  72  65  78 NE8       30.10F
DAVENPORT IA   MOSUNNY   78  64  61 SE6       30.11F
CHICAGO IL     CLOUDY    78  60  53 NE8       30.11F
EAU CLAIRE WI  CLOUDY    72  52  49 VRB5      30.15S
LA CROSSE WI   CLOUDY    73  58  59 SW5       30.14F
$$

  *****  SOME NATIONAL WEATHER *****

CITY           SKY/WX    TMP DP  RH WIND       PRES   REMARKS
LA GUARDIA NY  MOSUNNY   91  67  44 N13       29.97S HX  94
RALEIGH NC     MOSUNNY   95  67  39 CALM      30.04F HX  99
ATLANTA GA     MOSUNNY   92  66  42 SE9       30.04F HX  94
NEW ORLEANS LA CLOUDY    88  74  63 SE10      29.96F HX  96
OKLAHOMA CITY  CLOUDY    93  66  40 W6        29.98F HX  96
ALBUQUERQUE NM PTSUNNY   81  46  29 W13       30.15F
SALT LAKE CITY PTSUNNY   85  39  19 CALM      29.97F
LOS ANGELES CA MOSUNNY   72  58  61 W14       29.97S
BOISE ID       SUNNY     83  36  18 NW7       29.97F
SEATTLE WA     PTSUNNY   86  53  32 W6        29.92F
$$

*** WEATHER ACROSS MANITOBA...SASKATCHEWAN AND ONTARIO ***
                ***ONTARIO***

CITY           SKY/WX    TMP DP  RH WIND       PRES   REMARKS
GERALDTON      PTSUNNY   68  50  52 SW8       30.07S
THUNDER BAY    MOSUNNY   68  52  56 SE14      30.10S
SIOUX LOOKOUT  PTSUNNY   68  46  45 SW9       30.05F
TORONTO        MOSUNNY   84  57  39 W13G22    30.06R
BIG TROUT LK   SUNNY     70  55  60 SW7       29.87F
PICKLE LAKE    MOSUNNY   70  48  46 SW17G25   30.01S
DRYDEN         MOSUNNY   72  48  43 SW10G17   30.05F
KENORA         PTSUNNY   70  50  49 S8        30.04F
$$
                *** MANITOBA***

CITY           SKY/WX    TMP DP  RH WIND       PRES   REMARKS
BRANDON        PTSUNNY   72  52  49 SW15G21   29.93F
DAUPHIN        PTSUNNY   64  52  63 S14G21    29.88F
ISLAND LAKE    PTSUNNY   63  59  88 VRB2      29.88F THUNDER
PILOT MOUND      N/A     77  41  27 SW15G21     N/A
THE PAS        PTSUNNY   68  57  68 N5        29.82F
THOMPSON       CLOUDY    59  50  72 N3        29.90S
WINNIPEG       PTSUNNY   77  52  41 S20       29.95F
LYNN LAKE      SUNNY     63  37  39 MISG      29.89F
GILLAM         PTSUNNY   57  50  77 N6        29.90F
$$
                ***SASKATCHEWAN***

CITY           SKY/WX    TMP DP  RH WIND       PRES   REMARKS
ESTEVAN        PTSUNNY   70  48  46 W15G22    29.94S
KINDERSLEY     MOSUNNY   64  46  52 CALM      29.95F
LLOYDMINSTER   PTSUNNY   66  48  52 NE5       29.93F
PRINCE ALBERT  PTSUNNY   61  55  82 N3        29.86F
REGINA         PTSUNNY   63  54  72 W16G22    29.92S
YORKTON        TSTM      59  52  77 W17G28    29.87S
N. BATTLEFORD  PTSUNNY   64  48  55 NW7       29.93F   C1F1C2F2C3F3C4F4C5F5C6F6C7F7C8F8C9F9CaFaCbFbCcFcCdFdCe!



USA.gov is the U.S. government's official web portal to all federal, state and local government web resources and services.